Information on these data can be found in provided Readme document
Contact Info: Zachary Fasnacht (zachary.fasnacht@ssaihq.com); Nickolay Krotkov (nickolay.a.krotkov@nasa.gov); Lok Lamsal (lok.lamsal@nasa.gov)

FillValue: -999.
ScaleFactor: 1e15
Units: molecules/cm^2

Date(yyyy-mm-dd),City,Country,LonCenter,LatCenter,BoundingCoordinates,Median,Q1,Q3,Mean,Baseline_Median,Baseline_Q1,Baseline_Q3,Baseline_Mean,NumGoodSamples,NumTotalSamples
2015-01-01,Amsterdam,Netherlands,4.8833,52.3667,[4.3833 51.8667 5.3833 52.8667],5.601,3.588,7.872,6.538,6.129,4.065,9.164,7.014,93.0,653.0
2015-01-02,Amsterdam,Netherlands,4.8833,52.3667,[4.3833 51.8667 5.3833 52.8667],5.793,3.753,8.924,6.685,5.712,3.74,8.821,6.519,84.0,658.0
2015-01-03,Amsterdam,Netherlands,4.8833,52.3667,[4.3833 51.8667 5.3833 52.8667],5.793,3.753,8.924,6.685,5.945,3.974,8.826,6.606,84.0,649.0
2015-01-04,Amsterdam,Netherlands,4.8833,52.3667,[4.3833 51.8667 5.3833 52.8667],5.793,3.753,8.924,6.685,5.87,3.338,8.801,6.351,84.0,641.0
2015-01-05,Amsterdam,Netherlands,4.8833,52.3667,[4.3833 51.8667 5.3833 52.8667],5.904,3.881,11.459,7.39,5.807,3.191,9.426,6.478,71.0,638.0
2015-01-06,Amsterdam,Netherlands,4.8833,52.3667,[4.3833 51.8667 5.3833 52.8667],5.927,4.768,11.777,7.647,5.814,3.431,9.369,6.522,63.0,645.0
2015-01-07,Amsterdam,Netherlands,4.8833,52.3667,[4.3833 51.8667 5.3833 52.8667],5.987,4.705,11.587,7.598,5.687,3.293,9.284,6.307,71.0,647.0
2015-01-08,Amsterdam,Netherlands,4.8833,52.3667,[4.3833 51.8667 5.3833 52.8667],5.884,3.753,7.101,6.192,5.455,2.765,7.728,5.669,44.0,649.0
2015-01-09,Amsterdam,Netherlands,4.8833,52.3667,[4.3833 51.8667 5.3833 52.8667],5.927,4.037,7.829,6.864,5.841,3.349,7.711,5.959,58.0,655.0
2015-01-10,Amsterdam,Netherlands,4.8833,52.3667,[4.3833 51.8667 5.3833 52.8667],6.867,4.768,10.677,7.568,6.089,3.943,9.709,6.631,43.0,618.0
2015-01-11,Amsterdam,Netherlands,4.8833,52.3667,[4.3833 51.8667 5.3833 52.8667],6.867,4.768,10.677,7.568,6.138,3.599,9.839,6.765,43.0,614.0
2015-01-12,Amsterdam,Netherlands,4.8833,52.3667,[4.3833 51.8667 5.3833 52.8667],9.619,6.608,12.966,9.997,7.005,4.106,10.868,7.566,45.0,611.0
2015-01-13,Amsterdam,Netherlands,4.8833,52.3667,[4.3833 51.8667 5.3833 52.8667],9.619,6.608,12.966,9.997,7.122,4.452,10.974,7.64,45.0,609.0
2015-01-14,Amsterdam,Netherlands,4.8833,52.3667,[4.3833 51.8667 5.3833 52.8667],9.619,6.608,12.966,9.997,7.425,4.362,10.921,7.727,45.0,609.0
2015-01-15,Amsterdam,Netherlands,4.8833,52.3667,[4.3833 51.8667 5.3833 52.8667],7.941,6.046,11.587,9.461,7.251,4.467,10.805,7.729,34.0,613.0
2015-01-16,Amsterdam,Netherlands,4.8833,52.3667,[4.3833 51.8667 5.3833 52.8667],8.182,6.046,11.587,9.542,7.056,4.233,10.193,7.372,39.0,615.0
2015-01-17,Amsterdam,Netherlands,4.8833,52.3667,[4.3833 51.8667 5.3833 52.8667],8.182,6.046,11.587,9.542,7.865,5.397,10.794,8.183,39.0,612.0
2015-01-18,Amsterdam,Netherlands,4.8833,52.3667,[4.3833 51.8667 5.3833 52.8667],8.182,6.046,11.587,9.542,8.054,5.435,10.868,8.327,39.0,614.0
2015-01-19,Amsterdam,Netherlands,4.8833,52.3667,[4.3833 51.8667 5.3833 52.8667],8.182,6.046,11.587,9.542,9.058,6.466,11.532,9.627,39.0,605.0
2015-01-20,Amsterdam,Netherlands,4.8833,52.3667,[4.3833 51.8667 5.3833 52.8667],8.182,6.046,11.587,9.542,9.331,6.619,12.826,9.922,39.0,598.0
2015-01-21,Amsterdam,Netherlands,4.8833,52.3667,[4.3833 51.8667 5.3833 52.8667],8.182,6.046,11.587,9.542,9.215,6.447,12.443,9.736,39.0,596.0
2015-01-22,Amsterdam,Netherlands,4.8833,52.3667,[4.3833 51.8667 5.3833 52.8667],9.509,7.288,12.675,10.526,9.742,6.696,13.375,10.247,31.0,605.0
2015-01-23,Amsterdam,Netherlands,4.8833,52.3667,[4.3833 51.8667 5.3833 52.8667],10.806,7.442,18.453,15.53,9.865,6.73,13.935,10.76,45.0,607.0
2015-01-24,Amsterdam,Netherlands,4.8833,52.3667,[4.3833 51.8667 5.3833 52.8667],13.777,9.509,35.005,19.821,10.169,7.115,15.19,10.996,31.0,608.0
2015-01-25,Amsterdam,Netherlands,4.8833,52.3667,[4.3833 51.8667 5.3833 52.8667],13.777,9.509,35.005,19.821,10.541,7.402,16.597,11.716,31.0,649.0
2015-01-26,Amsterdam,Netherlands,4.8833,52.3667,[4.3833 51.8667 5.3833 52.8667],13.777,9.509,35.005,19.821,9.868,6.774,15.94,11.111,31.0,648.0
2015-01-27,Amsterdam,Netherlands,4.8833,52.3667,[4.3833 51.8667 5.3833 52.8667],8.182,1.75,12.157,11.97,9.011,5.225,13.735,10.137,31.0,642.0
2015-01-28,Amsterdam,Netherlands,4.8833,52.3667,[4.3833 51.8667 5.3833 52.8667],3.64,2.516,9.509,8.363,8.132,4.846,12.759,9.49,60.0,640.0
2015-01-29,Amsterdam,Netherlands,4.8833,52.3667,[4.3833 51.8667 5.3833 52.8667],3.64,2.516,9.509,8.363,8.851,4.696,12.744,9.651,60.0,637.0
2015-01-30,Amsterdam,Netherlands,4.8833,52.3667,[4.3833 51.8667 5.3833 52.8667],5.246,2.886,7.549,7.35,8.738,4.937,11.728,9.235,100.0,640.0
2015-01-31,Amsterdam,Netherlands,4.8833,52.3667,[4.3833 51.8667 5.3833 52.8667],5.013,2.876,7.426,7.231,8.385,4.979,11.926,9.044,95.0,646.0
2015-02-01,Amsterdam,Netherlands,4.8833,52.3667,[4.3833 51.8667 5.3833 52.8667],4.291,2.775,7.233,6.771,7.998,4.838,11.421,8.737,106.0,653.0
2015-02-02,Amsterdam,Netherlands,4.8833,52.3667,[4.3833 51.8667 5.3833 52.8667],4.291,2.775,7.233,6.771,7.601,4.719,10.35,8.507,106.0,652.0
2015-02-03,Amsterdam,Netherlands,4.8833,52.3667,[4.3833 51.8667 5.3833 52.8667],4.291,2.775,7.233,6.771,5.967,4.408,9.666,7.703,106.0,656.0
2015-02-04,Amsterdam,Netherlands,4.8833,52.3667,[4.3833 51.8667 5.3833 52.8667],4.291,2.775,7.233,6.771,6.008,4.415,8.833,7.427,106.0,647.0
2015-02-05,Amsterdam,Netherlands,4.8833,52.3667,[4.3833 51.8667 5.3833 52.8667],4.291,2.775,7.233,6.771,5.991,4.007,9.797,7.52,106.0,641.0
2015-02-06,Amsterdam,Netherlands,4.8833,52.3667,[4.3833 51.8667 5.3833 52.8667],5.819,3.05,12.163,8.765,6.903,4.523,10.598,8.276,149.0,637.0
2015-02-07,Amsterdam,Netherlands,4.8833,52.3667,[4.3833 51.8667 5.3833 52.8667],5.69,2.917,11.771,7.32,7.275,4.973,11.304,8.186,135.0,645.0
2015-02-08,Amsterdam,Netherlands,4.8833,52.3667,[4.3833 51.8667 5.3833 52.8667],6.52,3.261,11.775,7.778,8.672,5.215,12.291,8.869,159.0,648.0
2015-02-09,Amsterdam,Netherlands,4.8833,52.3667,[4.3833 51.8667 5.3833 52.8667],6.52,3.261,11.775,7.778,9.17,5.21,12.772,9.222,159.0,650.0
2015-02-10,Amsterdam,Netherlands,4.8833,52.3667,[4.3833 51.8667 5.3833 52.8667],6.0,3.224,11.652,7.506,9.45,6.134,13.013,9.505,174.0,655.0
2015-02-11,Amsterdam,Netherlands,4.8833,52.3667,[4.3833 51.8667 5.3833 52.8667],6.265,3.273,11.775,7.937,9.692,7.039,13.143,10.081,162.0,619.0
2015-02-12,Amsterdam,Netherlands,4.8833,52.3667,[4.3833 51.8667 5.3833 52.8667],9.183,4.992,13.69,9.576,10.347,7.488,13.612,10.545,145.0,616.0
2015-02-13,Amsterdam,Netherlands,4.8833,52.3667,[4.3833 51.8667 5.3833 52.8667],9.183,4.992,13.69,9.576,10.407,7.556,13.68,10.564,145.0,616.0
2015-02-14,Amsterdam,Netherlands,4.8833,52.3667,[4.3833 51.8667 5.3833 52.8667],11.775,6.546,14.648,10.979,10.829,7.884,13.832,10.836,105.0,615.0
2015-02-15,Amsterdam,Netherlands,4.8833,52.3667,[4.3833 51.8667 5.3833 52.8667],11.771,7.538,14.604,10.974,11.225,8.393,13.814,11.026,132.0,618.0
2015-02-16,Amsterdam,Netherlands,4.8833,52.3667,[4.3833 51.8667 5.3833 52.8667],11.671,8.037,14.604,11.135,10.815,8.035,13.738,10.781,127.0,622.0
2015-02-17,Amsterdam,Netherlands,4.8833,52.3667,[4.3833 51.8667 5.3833 52.8667],11.201,7.538,14.334,10.718,10.903,7.891,13.878,10.851,143.0,625.0
2015-02-18,Amsterdam,Netherlands,4.8833,52.3667,[4.3833 51.8667 5.3833 52.8667],11.201,7.538,14.334,10.718,10.576,7.47,13.634,10.594,143.0,622.0
2015-02-19,Amsterdam,Netherlands,4.8833,52.3667,[4.3833 51.8667 5.3833 52.8667],11.201,7.538,14.334,10.718,10.91,7.475,13.844,10.884,143.0,625.0
2015-02-20,Amsterdam,Netherlands,4.8833,52.3667,[4.3833 51.8667 5.3833 52.8667],10.889,7.271,14.175,10.521,10.83,7.839,13.891,10.895,159.0,617.0
2015-02-21,Amsterdam,Netherlands,4.8833,52.3667,[4.3833 51.8667 5.3833 52.8667],9.798,6.265,12.706,9.51,10.427,7.466,13.621,10.677,119.0,610.0
2015-02-22,Amsterdam,Netherlands,4.8833,52.3667,[4.3833 51.8667 5.3833 52.8667],8.201,5.366,12.088,8.828,9.586,6.957,13.36,10.265,153.0,607.0
2015-02-23,Amsterdam,Netherlands,4.8833,52.3667,[4.3833 51.8667 5.3833 52.8667],8.061,5.027,11.862,8.484,9.217,6.65,12.402,9.79,131.0,615.0
2015-02-24,Amsterdam,Netherlands,4.8833,52.3667,[4.3833 51.8667 5.3833 52.8667],8.061,5.027,11.862,8.484,8.628,6.522,11.841,9.567,131.0,618.0
2015-02-25,Amsterdam,Netherlands,4.8833,52.3667,[4.3833 51.8667 5.3833 52.8667],8.198,5.366,12.567,8.928,8.426,6.017,11.876,9.242,116.0,620.0
2015-02-26,Amsterdam,Netherlands,4.8833,52.3667,[4.3833 51.8667 5.3833 52.8667],8.198,5.562,12.567,8.937,8.159,5.556,11.465,8.689,130.0,661.0
2015-02-27,Amsterdam,Netherlands,4.8833,52.3667,[4.3833 51.8667 5.3833 52.8667],8.034,5.082,11.024,8.162,8.16,5.537,11.478,9.086,118.0,658.0
2015-02-28,Amsterdam,Netherlands,4.8833,52.3667,[4.3833 51.8667 5.3833 52.8667],8.034,5.082,11.024,8.354,8.125,5.513,11.513,9.112,122.0,652.0
2015-03-01,Amsterdam,Netherlands,4.8833,52.3667,[4.3833 51.8667 5.3833 52.8667],7.22,5.268,10.376,7.978,7.83,5.419,11.363,8.927,157.0,648.0
2015-03-02,Amsterdam,Netherlands,4.8833,52.3667,[4.3833 51.8667 5.3833 52.8667],6.553,5.034,9.813,7.531,7.658,5.225,11.46,8.874,131.0,644.0
2015-03-03,Amsterdam,Netherlands,4.8833,52.3667,[4.3833 51.8667 5.3833 52.8667],6.232,4.949,8.887,7.133,7.422,5.215,11.471,8.913,168.0,641.0
2015-03-04,Amsterdam,Netherlands,4.8833,52.3667,[4.3833 51.8667 5.3833 52.8667],5.566,4.527,8.034,6.602,7.277,5.17,11.906,8.903,161.0,648.0
2015-03-05,Amsterdam,Netherlands,4.8833,52.3667,[4.3833 51.8667 5.3833 52.8667],6.232,4.622,10.386,7.497,7.477,5.455,12.676,9.29,193.0,653.0
2015-03-06,Amsterdam,Netherlands,4.8833,52.3667,[4.3833 51.8667 5.3833 52.8667],6.232,4.622,10.386,7.497,7.333,5.322,12.05,8.913,193.0,652.0
2015-03-07,Amsterdam,Netherlands,4.8833,52.3667,[4.3833 51.8667 5.3833 52.8667],6.066,4.622,10.386,7.518,6.829,4.285,11.531,8.499,177.0,655.0
2015-03-08,Amsterdam,Netherlands,4.8833,52.3667,[4.3833 51.8667 5.3833 52.8667],5.871,4.622,9.818,7.281,6.82,4.463,10.921,8.365,174.0,647.0
2015-03-09,Amsterdam,Netherlands,4.8833,52.3667,[4.3833 51.8667 5.3833 52.8667],5.873,4.622,10.386,7.536,6.994,4.262,11.773,8.62,140.0,641.0
2015-03-10,Amsterdam,Netherlands,4.8833,52.3667,[4.3833 51.8667 5.3833 52.8667],7.158,4.968,12.296,8.845,7.2,4.339,11.863,8.922,181.0,637.0
2015-03-11,Amsterdam,Netherlands,4.8833,52.3667,[4.3833 51.8667 5.3833 52.8667],7.158,4.968,12.296,8.845,6.858,4.107,11.664,8.669,181.0,645.0
2015-03-12,Amsterdam,Netherlands,4.8833,52.3667,[4.3833 51.8667 5.3833 52.8667],7.048,4.968,12.464,9.075,7.029,4.603,11.569,8.905,208.0,646.0
2015-03-13,Amsterdam,Netherlands,4.8833,52.3667,[4.3833 51.8667 5.3833 52.8667],7.048,4.96,12.464,9.081,7.116,4.695,11.785,9.0,194.0,647.0
2015-03-14,Amsterdam,Netherlands,4.8833,52.3667,[4.3833 51.8667 5.3833 52.8667],6.993,4.622,12.224,8.834,6.637,4.274,10.536,8.14,201.0,653.0
2015-03-15,Amsterdam,Netherlands,4.8833,52.3667,[4.3833 51.8667 5.3833 52.8667],6.922,4.622,12.224,8.731,7.01,4.409,11.585,8.573,197.0,616.0
2015-03-16,Amsterdam,Netherlands,4.8833,52.3667,[4.3833 51.8667 5.3833 52.8667],8.146,4.502,13.454,9.246,7.555,4.574,11.715,8.729,163.0,614.0
2015-03-17,Amsterdam,Netherlands,4.8833,52.3667,[4.3833 51.8667 5.3833 52.8667],8.398,4.524,13.752,9.836,7.691,4.773,11.118,8.821,170.0,612.0
2015-03-18,Amsterdam,Netherlands,4.8833,52.3667,[4.3833 51.8667 5.3833 52.8667],10.386,5.14,14.382,11.113,8.038,4.752,10.816,8.843,127.0,612.0
2015-03-19,Amsterdam,Netherlands,4.8833,52.3667,[4.3833 51.8667 5.3833 52.8667],12.014,7.333,15.31,12.649,7.927,4.625,10.332,8.603,118.0,642.0
2015-03-20,Amsterdam,Netherlands,4.8833,52.3667,[4.3833 51.8667 5.3833 52.8667],11.858,6.483,18.172,12.98,7.387,3.999,10.305,8.145,86.0,666.0
2015-03-21,Amsterdam,Netherlands,4.8833,52.3667,[4.3833 51.8667 5.3833 52.8667],11.858,6.483,18.172,12.98,7.74,3.974,11.964,8.921,86.0,668.0
2015-03-22,Amsterdam,Netherlands,4.8833,52.3667,[4.3833 51.8667 5.3833 52.8667],11.858,6.483,18.172,12.98,8.106,4.617,12.255,9.222,86.0,666.0
2015-03-23,Amsterdam,Netherlands,4.8833,52.3667,[4.3833 51.8667 5.3833 52.8667],11.638,5.567,17.165,12.194,8.284,5.126,12.216,9.88,89.0,669.0
2015-03-24,Amsterdam,Netherlands,4.8833,52.3667,[4.3833 51.8667 5.3833 52.8667],10.156,4.295,16.894,11.319,8.131,4.798,13.653,9.879,108.0,660.0
2015-03-25,Amsterdam,Netherlands,4.8833,52.3667,[4.3833 51.8667 5.3833 52.8667],5.081,2.238,11.666,9.036,7.594,4.999,12.894,9.771,69.0,654.0
2015-03-26,Amsterdam,Netherlands,4.8833,52.3667,[4.3833 51.8667 5.3833 52.8667],3.005,1.645,6.555,6.739,7.496,5.082,12.697,9.715,96.0,652.0
2015-03-27,Amsterdam,Netherlands,4.8833,52.3667,[4.3833 51.8667 5.3833 52.8667],1.885,0.65,3.766,4.682,7.752,4.981,13.097,9.845,69.0,661.0
2015-03-28,Amsterdam,Netherlands,4.8833,52.3667,[4.3833 51.8667 5.3833 52.8667],1.794,0.573,3.458,4.358,7.99,5.165,13.541,10.08,75.0,665.0
2015-03-29,Amsterdam,Netherlands,4.8833,52.3667,[4.3833 51.8667 5.3833 52.8667],1.885,0.573,3.39,4.647,8.145,5.4,13.483,10.144,71.0,666.0
2015-03-30,Amsterdam,Netherlands,4.8833,52.3667,[4.3833 51.8667 5.3833 52.8667],1.885,0.573,3.39,4.647,7.588,4.931,12.934,9.699,71.0,708.0
2015-03-31,Amsterdam,Netherlands,4.8833,52.3667,[4.3833 51.8667 5.3833 52.8667],1.794,0.573,3.39,4.482,7.373,4.399,12.646,9.31,70.0,703.0
2015-04-01,Amsterdam,Netherlands,4.8833,52.3667,[4.3833 51.8667 5.3833 52.8667],2.084,0.772,3.28,2.285,7.106,4.07,13.016,9.113,68.0,700.0
2015-04-02,Amsterdam,Netherlands,4.8833,52.3667,[4.3833 51.8667 5.3833 52.8667],4.028,1.709,10.156,6.823,7.056,4.267,12.772,9.266,104.0,698.0
2015-04-03,Amsterdam,Netherlands,4.8833,52.3667,[4.3833 51.8667 5.3833 52.8667],6.273,2.11,13.74,8.392,7.414,4.283,13.282,9.474,111.0,665.0
2015-04-04,Amsterdam,Netherlands,4.8833,52.3667,[4.3833 51.8667 5.3833 52.8667],6.273,2.11,13.74,8.392,7.286,4.208,12.646,9.315,111.0,646.0
2015-04-05,Amsterdam,Netherlands,4.8833,52.3667,[4.3833 51.8667 5.3833 52.8667],8.256,2.83,13.74,8.756,7.496,4.367,11.684,8.954,120.0,665.0
2015-04-06,Amsterdam,Netherlands,4.8833,52.3667,[4.3833 51.8667 5.3833 52.8667],7.743,2.907,12.426,8.312,7.505,4.419,11.513,8.914,145.0,668.0
2015-04-07,Amsterdam,Netherlands,4.8833,52.3667,[4.3833 51.8667 5.3833 52.8667],7.943,3.248,12.426,8.552,7.184,4.301,10.53,8.404,142.0,689.0
2015-04-08,Amsterdam,Netherlands,4.8833,52.3667,[4.3833 51.8667 5.3833 52.8667],7.943,3.661,12.426,8.704,7.504,4.485,10.983,8.409,139.0,731.0
2015-04-09,Amsterdam,Netherlands,4.8833,52.3667,[4.3833 51.8667 5.3833 52.8667],7.943,4.069,12.426,8.668,7.468,4.538,11.03,8.387,150.0,743.0
2015-04-10,Amsterdam,Netherlands,4.8833,52.3667,[4.3833 51.8667 5.3833 52.8667],8.733,5.283,12.473,9.532,7.524,4.965,10.842,8.516,127.0,735.0
2015-04-11,Amsterdam,Netherlands,4.8833,52.3667,[4.3833 51.8667 5.3833 52.8667],7.531,4.251,10.816,8.537,7.271,4.819,10.669,8.326,170.0,732.0
2015-04-12,Amsterdam,Netherlands,4.8833,52.3667,[4.3833 51.8667 5.3833 52.8667],7.6,4.541,10.862,8.717,7.587,5.111,10.884,8.463,166.0,740.0
2015-04-13,Amsterdam,Netherlands,4.8833,52.3667,[4.3833 51.8667 5.3833 52.8667],6.857,4.251,9.882,8.165,7.326,5.156,10.942,8.648,201.0,742.0
2015-04-14,Amsterdam,Netherlands,4.8833,52.3667,[4.3833 51.8667 5.3833 52.8667],6.705,4.215,9.882,8.094,7.173,4.919,10.615,8.372,205.0,743.0
2015-04-15,Amsterdam,Netherlands,4.8833,52.3667,[4.3833 51.8667 5.3833 52.8667],6.704,4.215,9.783,8.079,7.198,4.958,10.734,8.397,207.0,748.0
2015-04-16,Amsterdam,Netherlands,4.8833,52.3667,[4.3833 51.8667 5.3833 52.8667],6.857,4.431,9.905,8.191,7.17,4.699,10.159,8.11,201.0,708.0
2015-04-17,Amsterdam,Netherlands,4.8833,52.3667,[4.3833 51.8667 5.3833 52.8667],6.857,4.431,10.429,9.324,7.14,4.62,10.416,8.468,180.0,749.0
2015-04-18,Amsterdam,Netherlands,4.8833,52.3667,[4.3833 51.8667 5.3833 52.8667],6.18,4.068,9.15,8.647,6.957,4.368,10.271,8.228,173.0,747.0
2015-04-19,Amsterdam,Netherlands,4.8833,52.3667,[4.3833 51.8667 5.3833 52.8667],6.18,4.068,9.15,8.647,7.189,4.51,10.382,8.373,173.0,777.0
2015-04-20,Amsterdam,Netherlands,4.8833,52.3667,[4.3833 51.8667 5.3833 52.8667],5.036,2.946,7.556,7.413,6.828,4.207,9.82,7.947,206.0,796.0
2015-04-21,Amsterdam,Netherlands,4.8833,52.3667,[4.3833 51.8667 5.3833 52.8667],4.859,2.908,7.416,7.414,6.727,4.3,9.662,7.907,188.0,822.0
2015-04-22,Amsterdam,Netherlands,4.8833,52.3667,[4.3833 51.8667 5.3833 52.8667],4.859,2.908,7.416,7.414,6.74,4.334,9.618,7.857,188.0,805.0
2015-04-23,Amsterdam,Netherlands,4.8833,52.3667,[4.3833 51.8667 5.3833 52.8667],4.582,2.69,6.975,7.388,6.523,4.296,9.153,7.597,172.0,766.0
2015-04-24,Amsterdam,Netherlands,4.8833,52.3667,[4.3833 51.8667 5.3833 52.8667],4.582,2.593,6.708,7.135,6.513,4.281,9.148,7.541,170.0,749.0
2015-04-25,Amsterdam,Netherlands,4.8833,52.3667,[4.3833 51.8667 5.3833 52.8667],4.648,2.748,7.416,7.249,6.423,4.25,9.148,7.504,182.0,741.0
2015-04-26,Amsterdam,Netherlands,4.8833,52.3667,[4.3833 51.8667 5.3833 52.8667],4.757,2.673,7.731,8.044,6.046,3.689,9.343,7.387,139.0,737.0
2015-04-27,Amsterdam,Netherlands,4.8833,52.3667,[4.3833 51.8667 5.3833 52.8667],4.687,2.718,7.564,7.718,5.665,3.578,8.595,6.969,161.0,735.0
2015-04-28,Amsterdam,Netherlands,4.8833,52.3667,[4.3833 51.8667 5.3833 52.8667],4.687,2.593,8.025,8.463,5.012,3.124,7.991,6.539,126.0,743.0
2015-04-29,Amsterdam,Netherlands,4.8833,52.3667,[4.3833 51.8667 5.3833 52.8667],4.757,2.642,7.879,8.374,5.181,3.219,7.859,6.572,130.0,745.0
2015-04-30,Amsterdam,Netherlands,4.8833,52.3667,[4.3833 51.8667 5.3833 52.8667],4.687,2.642,7.954,8.403,5.344,3.44,8.025,6.728,128.0,746.0
2015-05-01,Amsterdam,Netherlands,4.8833,52.3667,[4.3833 51.8667 5.3833 52.8667],4.937,2.882,10.015,9.519,5.443,3.451,8.946,7.225,138.0,787.0
2015-05-02,Amsterdam,Netherlands,4.8833,52.3667,[4.3833 51.8667 5.3833 52.8667],4.378,2.593,7.416,6.153,5.407,3.452,8.305,6.685,123.0,742.0
2015-05-03,Amsterdam,Netherlands,4.8833,52.3667,[4.3833 51.8667 5.3833 52.8667],4.937,2.882,8.204,6.822,5.503,3.603,8.395,6.794,137.0,740.0
2015-05-04,Amsterdam,Netherlands,4.8833,52.3667,[4.3833 51.8667 5.3833 52.8667],5.97,3.492,8.705,7.222,5.826,3.815,8.674,6.99,173.0,706.0
2015-05-05,Amsterdam,Netherlands,4.8833,52.3667,[4.3833 51.8667 5.3833 52.8667],7.416,4.683,10.015,8.295,6.051,3.848,8.772,7.056,132.0,687.0
2015-05-06,Amsterdam,Netherlands,4.8833,52.3667,[4.3833 51.8667 5.3833 52.8667],7.356,4.328,10.749,8.447,6.199,3.835,8.901,7.122,160.0,669.0
2015-05-07,Amsterdam,Netherlands,4.8833,52.3667,[4.3833 51.8667 5.3833 52.8667],7.288,4.216,10.663,8.339,5.847,3.745,8.549,6.859,162.0,696.0
2015-05-08,Amsterdam,Netherlands,4.8833,52.3667,[4.3833 51.8667 5.3833 52.8667],6.296,3.558,10.127,7.848,5.907,3.641,8.78,6.871,191.0,701.0
2015-05-09,Amsterdam,Netherlands,4.8833,52.3667,[4.3833 51.8667 5.3833 52.8667],7.165,3.811,10.772,8.193,6.082,3.646,9.096,6.936,178.0,728.0
2015-05-10,Amsterdam,Netherlands,4.8833,52.3667,[4.3833 51.8667 5.3833 52.8667],6.218,3.549,10.127,7.755,6.237,3.833,8.988,7.009,177.0,773.0
2015-05-11,Amsterdam,Netherlands,4.8833,52.3667,[4.3833 51.8667 5.3833 52.8667],6.218,3.549,10.127,7.755,6.416,3.85,9.265,7.142,177.0,784.0
2015-05-12,Amsterdam,Netherlands,4.8833,52.3667,[4.3833 51.8667 5.3833 52.8667],6.296,3.616,10.663,7.949,6.356,3.866,9.248,7.204,158.0,788.0
2015-05-13,Amsterdam,Netherlands,4.8833,52.3667,[4.3833 51.8667 5.3833 52.8667],6.212,3.384,10.127,7.693,6.736,3.975,9.525,7.329,182.0,795.0
2015-05-14,Amsterdam,Netherlands,4.8833,52.3667,[4.3833 51.8667 5.3833 52.8667],5.995,3.313,9.649,7.479,6.688,3.945,9.585,7.394,190.0,823.0
2015-05-15,Amsterdam,Netherlands,4.8833,52.3667,[4.3833 51.8667 5.3833 52.8667],6.218,3.384,9.791,7.756,6.987,4.081,9.953,7.644,205.0,837.0
2015-05-16,Amsterdam,Netherlands,4.8833,52.3667,[4.3833 51.8667 5.3833 52.8667],5.97,3.291,8.705,6.893,6.975,4.141,9.933,7.584,199.0,862.0
2015-05-17,Amsterdam,Netherlands,4.8833,52.3667,[4.3833 51.8667 5.3833 52.8667],5.97,3.384,8.705,6.833,6.791,3.89,9.654,7.201,226.0,872.0
2015-05-18,Amsterdam,Netherlands,4.8833,52.3667,[4.3833 51.8667 5.3833 52.8667],5.635,3.291,8.269,6.465,6.402,3.33,9.648,6.971,212.0,832.0
2015-05-19,Amsterdam,Netherlands,4.8833,52.3667,[4.3833 51.8667 5.3833 52.8667],4.617,2.55,7.464,5.608,5.594,3.119,9.393,6.577,184.0,835.0
2015-05-20,Amsterdam,Netherlands,4.8833,52.3667,[4.3833 51.8667 5.3833 52.8667],4.617,2.753,7.288,5.653,5.308,2.925,9.454,6.477,205.0,821.0
2015-05-21,Amsterdam,Netherlands,4.8833,52.3667,[4.3833 51.8667 5.3833 52.8667],4.465,2.624,6.949,5.264,5.132,2.911,9.456,6.427,172.0,852.0
2015-05-22,Amsterdam,Netherlands,4.8833,52.3667,[4.3833 51.8667 5.3833 52.8667],4.599,2.688,6.949,5.324,5.789,3.238,10.066,6.91,170.0,859.0
2015-05-23,Amsterdam,Netherlands,4.8833,52.3667,[4.3833 51.8667 5.3833 52.8667],4.465,2.688,6.717,5.163,5.774,3.289,10.423,6.995,144.0,883.0
2015-05-24,Amsterdam,Netherlands,4.8833,52.3667,[4.3833 51.8667 5.3833 52.8667],4.465,2.688,6.717,5.163,5.418,3.163,10.11,6.746,144.0,894.0
2015-05-25,Amsterdam,Netherlands,4.8833,52.3667,[4.3833 51.8667 5.3833 52.8667],4.735,2.753,6.904,5.407,5.565,3.131,8.447,6.543,129.0,872.0
2015-05-26,Amsterdam,Netherlands,4.8833,52.3667,[4.3833 51.8667 5.3833 52.8667],4.735,2.753,6.904,5.407,5.438,3.072,8.618,6.49,129.0,891.0
2015-05-27,Amsterdam,Netherlands,4.8833,52.3667,[4.3833 51.8667 5.3833 52.8667],4.465,2.688,6.958,5.272,5.359,3.06,8.631,6.441,135.0,893.0
2015-05-28,Amsterdam,Netherlands,4.8833,52.3667,[4.3833 51.8667 5.3833 52.8667],5.074,3.244,6.786,5.394,5.254,2.99,8.261,6.201,121.0,923.0
2015-05-29,Amsterdam,Netherlands,4.8833,52.3667,[4.3833 51.8667 5.3833 52.8667],5.612,3.797,7.441,5.901,5.335,3.011,8.252,6.235,138.0,929.0
2015-05-30,Amsterdam,Netherlands,4.8833,52.3667,[4.3833 51.8667 5.3833 52.8667],4.619,1.504,6.383,4.537,4.68,2.523,7.117,5.504,141.0,969.0
2015-05-31,Amsterdam,Netherlands,4.8833,52.3667,[4.3833 51.8667 5.3833 52.8667],3.837,1.275,6.279,3.976,4.547,2.53,6.858,5.192,178.0,981.0
2015-06-01,Amsterdam,Netherlands,4.8833,52.3667,[4.3833 51.8667 5.3833 52.8667],2.541,0.823,5.816,3.48,4.473,2.551,6.933,5.264,156.0,1015.0
2015-06-02,Amsterdam,Netherlands,4.8833,52.3667,[4.3833 51.8667 5.3833 52.8667],2.541,0.823,5.816,3.48,4.584,2.632,7.018,5.405,156.0,1095.0
2015-06-03,Amsterdam,Netherlands,4.8833,52.3667,[4.3833 51.8667 5.3833 52.8667],3.169,0.962,5.832,3.797,4.591,2.581,7.005,5.332,148.0,1119.0
2015-06-04,Amsterdam,Netherlands,4.8833,52.3667,[4.3833 51.8667 5.3833 52.8667],2.417,0.823,5.266,3.434,4.504,2.458,6.959,5.269,141.0,1152.0
2015-06-05,Amsterdam,Netherlands,4.8833,52.3667,[4.3833 51.8667 5.3833 52.8667],3.086,1.03,5.59,3.576,4.454,2.248,6.86,5.083,170.0,1141.0
2015-06-06,Amsterdam,Netherlands,4.8833,52.3667,[4.3833 51.8667 5.3833 52.8667],3.117,1.03,5.59,3.585,4.114,1.913,6.291,4.628,171.0,1161.0
2015-06-07,Amsterdam,Netherlands,4.8833,52.3667,[4.3833 51.8667 5.3833 52.8667],3.306,1.171,5.612,3.662,4.145,1.92,6.266,4.532,168.0,1169.0
2015-06-08,Amsterdam,Netherlands,4.8833,52.3667,[4.3833 51.8667 5.3833 52.8667],2.643,0.806,5.195,3.279,4.171,2.075,6.335,4.705,179.0,1169.0
2015-06-09,Amsterdam,Netherlands,4.8833,52.3667,[4.3833 51.8667 5.3833 52.8667],2.643,0.823,5.128,3.251,3.714,1.639,6.077,4.378,195.0,1151.0
2015-06-10,Amsterdam,Netherlands,4.8833,52.3667,[4.3833 51.8667 5.3833 52.8667],2.643,0.823,5.128,3.251,3.453,1.431,5.963,4.061,195.0,1138.0
2015-06-11,Amsterdam,Netherlands,4.8833,52.3667,[4.3833 51.8667 5.3833 52.8667],2.643,0.823,5.195,3.279,3.52,1.485,6.118,4.203,184.0,1170.0
2015-06-12,Amsterdam,Netherlands,4.8833,52.3667,[4.3833 51.8667 5.3833 52.8667],2.343,0.782,4.566,2.937,3.697,1.66,6.101,4.252,171.0,1135.0
2015-06-13,Amsterdam,Netherlands,4.8833,52.3667,[4.3833 51.8667 5.3833 52.8667],1.878,0.67,3.957,2.288,3.443,1.696,5.992,4.123,140.0,1157.0
2015-06-14,Amsterdam,Netherlands,4.8833,52.3667,[4.3833 51.8667 5.3833 52.8667],2.417,0.698,4.204,2.554,3.676,1.712,6.014,4.203,125.0,1139.0
2015-06-15,Amsterdam,Netherlands,4.8833,52.3667,[4.3833 51.8667 5.3833 52.8667],2.847,1.19,4.566,2.95,3.599,1.754,5.875,4.197,84.0,1165.0
2015-06-16,Amsterdam,Netherlands,4.8833,52.3667,[4.3833 51.8667 5.3833 52.8667],2.847,1.422,4.953,3.021,3.525,1.807,5.773,4.118,79.0,1161.0